Content
SEND FEEDBACK

Daily
Averages
Monthly
Summary
United States of America

ANN ARBOR, MICHIGAN


Home > North America > United States > Michigan
Elevation: 759 feet     Latitude: 42 17N     Longitude: 083 43W

WEATHER
 
SELECT A DAY
Number of Records: 203,415;   Date Range: 1/1/95 - 7/29/14
 
SHARE

PRINT THIS DATA

[ ← Previous Day ]
WEATHER ALMANAC - MAY 13, 2014
[ Next Day → ]
[ °C ]   °F
Weather ElementAverageHighLow
Temperature68.8 °F84 °F (2:53 pm)62.1 °F (1:14 am)
Dewpoint63.8 °F68 °F (12:53 pm)57 °F (11:53 pm)
Humidity85.2 %97 % (1:00 am)55 % (2:53 pm)
Barometer29.95 in30.04 in (10:53 pm)29.87 in (2:53 pm)
Wind Speed7.3 mph19.6 mph (2:55 pm)
Wind Gust44.9 mph (3:08 pm)
Weather ElementAverage
Visibility7.3 mi
Wind DirectionS (181.7 °)

Weather ElementTotal
Precipitation0.85 in
Cooling Degree Days8.1 (Base 65)
Growing Degree Days23.1 (Base 50)
Averaged from 35 records on May 13, 2014
WEATHER CONDITIONS BREAKOUT
WIND DIRECTION BREAKOUT
WEATHER BY HOUR - MAY 13, 2014
[ °C ]   °F
Local TimeTemperatureDewpointHumidityBarometerVisibilityWind DirectionWind SpeedGust SpeedPrecipitationEventsConditions
12:53 AM64.0 °F62.1 °F93 %29.96 in4.0 miCalmClear
1:00 AM63.0 °F62.1 °F97 %29.97 in1.8 miCalmClear
1:10 AM63.0 °F62.1 °F97 %29.97 in1.0 miCalmClear
1:14 AM62.1 °F61.0 °F96 %29.96 in0.5 miCalmFogFog
1:32 AM63.0 °F62.1 °F97 %29.97 in1.2 miCalmPartly Cloudy
1:34 AM63.0 °F62.1 °F97 %29.97 in2.5 miCalmPartly Cloudy
1:41 AM64.0 °F63.0 °F96 %29.97 in4.0 miCalmPartly Cloudy
1:53 AM63.0 °F62.1 °F97 %29.96 in4.0 miCalmClear
3:53 AM66.9 °F64.9 °F93 %29.92 in9.0 miSSW (200°)6.9 mphClear
4:53 AM66.0 °F64.0 °F93 %29.91 in8.0 miSSW (200°)5.8 mphClear
5:53 AM64.9 °F63.0 °F93 %29.93 in8.0 miSouth (190°)4.6 mphClear
6:53 AM66.0 °F64.0 °F93 %29.93 in9.0 miSSW (200°)6.9 mphClear
7:53 AM66.9 °F64.0 °F90 %29.94 in9.0 miSSW (200°)6.9 mphClear
9:53 AM75.9 °F66.9 °F74 %29.94 in10.0 miSSW (210°)12.7 mphClear
12:53 PM82.9 °F68.0 °F60 %29.91 in10.0 miSSW (210°)18.4 mph25.3 mphPartly Cloudy
1:53 PM82.9 °F66.9 °F58 %29.89 in10.0 miSSW (210°)16.1 mph24.2 mphMostly Cloudy
2:53 PM84.0 °F66.0 °F55 %29.87 in10.0 miSW (220°)15.0 mph27.6 mphMostly Cloudy
2:55 PM84.0 °F66.0 °F55 %29.91 in10.0 miSW (230°)19.6 mph27.6 mphThunderstormThunderstorm
3:08 PM68.0 °F64.0 °F87 %29.91 in4.0 miWNW (290°)19.6 mph44.9 mph0.02 inRain-ThunderstormLight Thunderstorms and Rain
3:23 PM68.0 °F64.9 °F90 %29.93 in2.5 miWSW (250°)11.5 mph25.3 mph0.12 inRain-ThunderstormLight Thunderstorms and Rain
3:30 PM69.1 °F64.9 °F87 %29.94 in5.0 miWSW (250°)12.7 mph0.14 inRain-ThunderstormLight Thunderstorms and Rain
3:32 PM69.1 °F64.9 °F87 %29.94 in2.5 miSW (230°)6.9 mph0.16 inRain-ThunderstormHeavy Rain
3:46 PM69.1 °F64.0 °F84 %29.94 in10.0 miWSW (240°)9.2 mph0.20 inThunderstormOvercast
3:53 PM70.0 °F64.9 °F84 %29.95 in10.0 miSSW (210°)6.9 mph0.20 inThunderstormOvercast
4:40 PM69.1 °F66.0 °F90 %29.96 in10.0 miSouth (180°)4.6 mph0.00 inRainLight Rain
4:53 PM69.1 °F66.0 °F90 %29.94 in10.0 miSouth (180°)4.6 mph0.00 inRainLight Rain
5:53 PM72.0 °F66.9 °F84 %29.94 in10.0 miWSW (240°)4.6 mph0.00 inScattered Clouds
6:53 PM72.0 °F66.9 °F84 %29.94 in10.0 miWSW (240°)5.8 mph0.00 inPartly Cloudy
7:11 PM70.0 °F63.0 °F78 %29.97 in10.0 miWNW (300°)11.5 mphMostly Cloudy
7:35 PM69.1 °F63.0 °F81 %29.97 in10.0 miWNW (290°)6.9 mphOvercast
7:53 PM69.1 °F64.0 °F84 %29.97 in10.0 miWest (280°)5.8 mph0.00 inRainLight Rain
8:53 PM68.0 °F64.0 °F87 %29.99 in10.0 miWest (260°)5.8 mph0.01 inMostly Cloudy
9:53 PM66.0 °F60.1 °F81 %30.01 in10.0 miWest (270°)10.4 mphScattered Clouds
10:53 PM63.0 °F59.0 °F87 %30.04 in10.0 miWNW (290°)8.1 mphOvercast
11:53 PM62.1 °F57.0 °F84 %30.04 in10.0 miWNW (290°)9.2 mph0.00 inOvercast
Hourly data recorded from KARB, located miles away from Ann Arbor, Michigan







STORIES FROM OUR PARTNERS